"TOA5","MOW","CPU:UNC_MeetingWaters","DataHourly"
"TIMESTAMP","SondeTempC","SpCond","DOSat","DOmg","pH","Turb","BattVolt_Min"
"TS","","","","","","",""
"","Smp","Smp","Smp","Smp","Smp","Smp","Min"
"2007-02-01 00:00:00",-6999.0,0.115000002086,76.5999984741,7.57999992371,7.98000001907,102.300003052,11.6999998093
"2007-02-01 01:00:00",-6999.0,0.115000002086,76.5999984741,7.57999992371,7.98000001907,102.300003052,11.6899995804
"2007-02-01 02:00:00",-6999.0,0.115000002086,76.5999984741,7.57999992371,7.98000001907,102.300003052,11.6800003052
"2007-02-01 03:00:00",-6999.0,0.115000002086,76.5999984741,7.57999992371,7.98000001907,102.300003052,11.6700000763
"2007-02-01 04:00:00",-6999.0,0.115000002086,76.5999984741,7.57999992371,7.98000001907,102.300003052,11.6599998474
"2007-02-01 05:00:00",-6999.0,0.115000002086,76.5999984741,7.57999992371,7.98000001907,102.300003052,11.6499996185
"2007-02-01 06:00:00",-6999.0,0.115000002086,76.5999984741,7.57999992371,7.98000001907,102.300003052,11.6400003433
"2007-02-01 07:00:00",-6999.0,0.115000002086,76.5999984741,7.57999992371,7.98000001907,102.300003052,11.6199998856
"2007-02-01 08:00:00",-6999.0,0.115000002086,76.5999984741,7.57999992371,7.98000001907,102.300003052,11.6099996567
"2007-02-01 09:00:00",-6999.0,0.115000002086,76.5999984741,7.57999992371,7.98000001907,102.300003052,11.5900001526
"2007-02-01 10:00:00",-6999.0,0.115000002086,76.5999984741,7.57999992371,7.98000001907,102.300003052,11.5699996948
"2007-02-01 11:00:00",-6999.0,0.115000002086,76.5999984741,7.57999992371,7.98000001907,102.300003052,11.5699996948
"2007-02-01 12:00:00",-6999.0,0.115000002086,76.5999984741,7.57999992371,7.98000001907,102.300003052,11.5500001907
"2007-02-01 13:00:00",-6999.0,0.115000002086,76.5999984741,7.57999992371,7.98000001907,102.300003052,11.5399999619
"2007-02-01 14:00:00",-6999.0,0.115000002086,76.5999984741,7.57999992371,7.98000001907,102.300003052,11.529999733
"2007-02-01 15:00:00",-6999.0,0.115000002086,76.5999984741,7.57999992371,7.98000001907,102.300003052,11.5100002289
"2007-02-01 16:00:00",-6999.0,0.115000002086,76.5999984741,7.57999992371,7.98000001907,102.300003052,11.5
"2007-02-01 17:00:00",-6999.0,0.115000002086,76.5999984741,7.57999992371,7.98000001907,102.300003052,11.5
"2007-02-01 18:00:00",-6999.0,0.115000002086,76.5999984741,7.57999992371,7.98000001907,102.300003052,11.4799995422
"2007-02-03 11:00:00",-6999.0,0.115000002086,76.5999984741,7.57999992371,7.98000001907,102.300003052,12.1400003433
"2007-02-03 12:00:00",-6999.0,0.115000002086,76.5999984741,7.57999992371,7.98000001907,102.300003052,12.4799995422
"2007-02-03 13:00:00",-6999.0,0.115000002086,76.5999984741,7.57999992371,7.98000001907,102.300003052,12.3299999237
"2007-02-03 14:00:00",-6999.0,0.115000002086,76.5999984741,7.57999992371,7.98000001907,102.300003052,12.6400003433
"2007-02-03 15:00:00",-6999.0,0.115000002086,76.5999984741,7.57999992371,7.98000001907,102.300003052,12.1899995804
"2007-02-03 16:00:00",-6999.0,0.115000002086,76.5999984741,7.57999992371,7.98000001907,102.300003052,12.0600004196
"2007-02-03 17:00:00",-6999.0,0.115000002086,76.5999984741,7.57999992371,7.98000001907,102.300003052,11.9300003052
"2007-02-03 18:00:00",-6999.0,0.115000002086,76.5999984741,7.57999992371,7.98000001907,102.300003052,11.7899999619
"2007-02-03 19:00:00",-6999.0,0.115000002086,76.5999984741,7.57999992371,7.98000001907,102.300003052,11.75
"2007-02-03 20:00:00",-6999.0,0.115000002086,76.5999984741,7.57999992371,7.98000001907,102.300003052,11.7299995422
"2007-02-03 21:00:00",-6999.0,0.115000002086,76.5999984741,7.57999992371,7.98000001907,102.300003052,11.720000267
"2007-02-03 22:00:00",-6999.0,0.115000002086,76.5999984741,7.57999992371,7.98000001907,102.300003052,11.6999998093
"2007-02-03 23:00:00",-6999.0,0.115000002086,76.5999984741,7.57999992371,7.98000001907,102.300003052,11.6899995804
"2007-02-04 00:00:00",-6999.0,0.115000002086,76.5999984741,7.57999992371,7.98000001907,102.300003052,11.6800003052
"2007-02-04 01:00:00",-6999.0,0.115000002086,76.5999984741,7.57999992371,7.98000001907,102.300003052,11.6599998474
"2007-02-04 02:00:00",-6999.0,0.115000002086,76.5999984741,7.57999992371,7.98000001907,102.300003052,11.6599998474
"2007-02-04 03:00:00",-6999.0,0.115000002086,76.5999984741,7.57999992371,7.98000001907,102.300003052,11.6400003433
"2007-02-04 04:00:00",-6999.0,0.115000002086,76.5999984741,7.57999992371,7.98000001907,102.300003052,11.6199998856
"2007-02-04 05:00:00",-6999.0,0.115000002086,76.5999984741,7.57999992371,7.98000001907,102.300003052,11.6000003815
"2007-02-04 06:00:00",-6999.0,0.115000002086,76.5999984741,7.57999992371,7.98000001907,102.300003052,11.5900001526
"2007-02-04 07:00:00",-6999.0,0.115000002086,76.5999984741,7.57999992371,7.98000001907,102.300003052,11.5799999237
"2007-02-04 08:00:00",-6999.0,0.115000002086,76.5999984741,7.57999992371,7.98000001907,102.300003052,11.5600004196
"2007-02-04 09:00:00",-6999.0,0.115000002086,76.5999984741,7.57999992371,7.98000001907,102.300003052,11.5399999619
"2007-02-04 10:00:00",-6999.0,0.115000002086,76.5999984741,7.57999992371,7.98000001907,102.300003052,11.6700000763
"2007-02-04 11:00:00",-6999.0,0.115000002086,76.5999984741,7.57999992371,7.98000001907,102.300003052,12.1300001144
"2007-02-04 12:00:00",-6999.0,0.115000002086,76.5999984741,7.57999992371,7.98000001907,102.300003052,12.4399995804
"2007-02-04 13:00:00",-6999.0,0.115000002086,76.5999984741,7.57999992371,7.98000001907,102.300003052,12.4200000763
"2007-02-04 14:00:00",-6999.0,0.115000002086,76.5999984741,7.57999992371,7.98000001907,102.300003052,12.5699996948
"2007-02-04 15:00:00",-6999.0,0.115000002086,76.5999984741,7.57999992371,7.98000001907,102.300003052,12.1300001144
"2007-02-04 16:00:00",-6999.0,0.115000002086,76.5999984741,7.57999992371,7.98000001907,102.300003052,12.0
"2007-02-04 17:00:00",-6999.0,0.115000002086,76.5999984741,7.57999992371,7.98000001907,102.300003052,11.9300003052
"2007-02-04 18:00:00",-6999.0,0.115000002086,76.5999984741,7.57999992371,7.98000001907,102.300003052,11.7899999619
"2007-02-04 19:00:00",-6999.0,0.115000002086,76.5999984741,7.57999992371,7.98000001907,102.300003052,11.7700004578
"2007-02-04 20:00:00",-6999.0,0.115000002086,76.5999984741,7.57999992371,7.98000001907,102.300003052,11.75
"2007-02-04 21:00:00",-6999.0,0.115000002086,76.5999984741,7.57999992371,7.98000001907,102.300003052,11.7299995422
"2007-02-04 22:00:00",-6999.0,0.115000002086,76.5999984741,7.57999992371,7.98000001907,102.300003052,11.720000267
"2007-02-04 23:00:00",-6999.0,0.115000002086,76.5999984741,7.57999992371,7.98000001907,102.300003052,11.6999998093
"2007-02-05 00:00:00",-6999.0,0.115000002086,76.5999984741,7.57999992371,7.98000001907,102.300003052,11.6899995804
"2007-02-05 01:00:00",-6999.0,0.115000002086,76.5999984741,7.57999992371,7.98000001907,102.300003052,11.6800003052
"2007-02-05 02:00:00",-6999.0,0.115000002086,76.5999984741,7.57999992371,7.98000001907,102.300003052,11.6599998474
"2007-02-05 03:00:00",-6999.0,0.115000002086,76.5999984741,7.57999992371,7.98000001907,102.300003052,11.6499996185
"2007-02-05 04:00:00",-6999.0,0.115000002086,76.5999984741,7.57999992371,7.98000001907,102.300003052,11.6300001144
"2007-02-05 05:00:00",-6999.0,0.115000002086,76.5999984741,7.57999992371,7.98000001907,102.300003052,11.6199998856
"2007-02-05 06:00:00",-6999.0,0.115000002086,76.5999984741,7.57999992371,7.98000001907,102.300003052,11.6000003815
"2007-02-05 07:00:00",-6999.0,0.115000002086,76.5999984741,7.57999992371,7.98000001907,102.300003052,11.5799999237
"2007-02-05 08:00:00",-6999.0,0.115000002086,76.5999984741,7.57999992371,7.98000001907,102.300003052,11.5600004196
"2007-02-05 09:00:00",-6999.0,0.115000002086,76.5999984741,7.57999992371,7.98000001907,102.300003052,11.5500001907
"2007-02-05 10:00:00",-6999.0,0.115000002086,76.5999984741,7.57999992371,7.98000001907,102.300003052,11.5900001526
"2007-02-05 11:00:00",-6999.0,0.115000002086,76.5999984741,7.57999992371,7.98000001907,102.300003052,12.1499996185
"2007-02-05 12:00:00",-6999.0,0.115000002086,76.5999984741,7.57999992371,7.98000001907,102.300003052,12.6999998093
"2007-02-05 13:00:00",-6999.0,0.115000002086,76.5999984741,7.57999992371,7.98000001907,102.300003052,12.6000003815
"2007-02-05 14:00:00",-6999.0,0.115000002086,76.5999984741,7.57999992371,7.98000001907,102.300003052,12.9200000763
"2007-02-05 15:00:00",-6999.0,0.115000002086,76.5999984741,7.57999992371,7.98000001907,102.300003052,12.5500001907
"2007-02-05 16:00:00",-6999.0,0.115000002086,76.5999984741,7.57999992371,7.98000001907,102.300003052,12.1300001144
"2007-02-05 17:00:00",-6999.0,0.115000002086,76.5999984741,7.57999992371,7.98000001907,102.300003052,12.029999733
"2007-02-05 18:00:00",-6999.0,0.115000002086,76.5999984741,7.57999992371,7.98000001907,102.300003052,11.8400001526
"2007-02-05 19:00:00",-6999.0,0.115000002086,76.5999984741,7.57999992371,7.98000001907,102.300003052,11.8100004196
"2007-02-05 20:00:00",-6999.0,0.115000002086,76.5999984741,7.57999992371,7.98000001907,102.300003052,11.7899999619
"2007-02-05 21:00:00",-6999.0,0.115000002086,76.5999984741,7.57999992371,7.98000001907,102.300003052,11.7700004578
"2007-02-05 22:00:00",-6999.0,0.115000002086,76.5999984741,7.57999992371,7.98000001907,102.300003052,11.75
"2007-02-05 23:00:00",-6999.0,0.115000002086,76.5999984741,7.57999992371,7.98000001907,102.300003052,11.7399997711
"2007-02-06 00:00:00",-6999.0,0.115000002086,76.5999984741,7.57999992371,7.98000001907,102.300003052,11.720000267
"2007-02-06 01:00:00",-6999.0,0.115000002086,76.5999984741,7.57999992371,7.98000001907,102.300003052,11.7100000381
"2007-02-06 02:00:00",-6999.0,0.115000002086,76.5999984741,7.57999992371,7.98000001907,102.300003052,11.6899995804
"2007-02-06 03:00:00",-6999.0,0.115000002086,76.5999984741,7.57999992371,7.98000001907,102.300003052,11.6800003052
"2007-02-06 04:00:00",-6999.0,0.115000002086,76.5999984741,7.57999992371,7.98000001907,102.300003052,11.6599998474
"2007-02-06 05:00:00",-6999.0,0.115000002086,76.5999984741,7.57999992371,7.98000001907,102.300003052,11.6499996185
"2007-02-06 06:00:00",-6999.0,0.115000002086,76.5999984741,7.57999992371,7.98000001907,102.300003052,11.6300001144
"2007-02-06 07:00:00",-6999.0,0.115000002086,76.5999984741,7.57999992371,7.98000001907,102.300003052,11.6099996567
"2007-02-06 08:00:00",-6999.0,0.115000002086,76.5999984741,7.57999992371,7.98000001907,102.300003052,11.5900001526
"2007-02-06 09:00:00",-6999.0,0.115000002086,76.5999984741,7.57999992371,7.98000001907,102.300003052,11.5900001526
"2007-02-06 10:00:00",-6999.0,0.115000002086,76.5999984741,7.57999992371,7.98000001907,102.300003052,11.6999998093
"2007-02-06 11:00:00",-6999.0,0.115000002086,76.5999984741,7.57999992371,7.98000001907,102.300003052,12.2700004578
"2007-02-06 12:00:00",-6999.0,0.115000002086,76.5999984741,7.57999992371,7.98000001907,102.300003052,13.1700000763
"2007-02-06 13:00:00",-6999.0,0.115000002086,76.5999984741,7.57999992371,7.98000001907,102.300003052,12.970000267
"2007-02-06 14:00:00",-6999.0,0.115000002086,76.5999984741,7.57999992371,7.98000001907,102.300003052,13.2299995422
"2007-02-06 15:00:00",-6999.0,0.115000002086,76.5999984741,7.57999992371,7.98000001907,102.300003052,12.6700000763
"2007-02-06 16:00:00",-6999.0,0.115000002086,76.5999984741,7.57999992371,7.98000001907,102.300003052,12.2600002289
"2007-02-06 17:00:00",-6999.0,0.115000002086,76.5999984741,7.57999992371,7.98000001907,102.300003052,11.970000267
"2007-02-06 18:00:00",-6999.0,0.115000002086,76.5999984741,7.57999992371,7.98000001907,102.300003052,11.9099998474
"2007-02-06 19:00:00",-6999.0,0.115000002086,76.5999984741,7.57999992371,7.98000001907,102.300003052,11.8699998856
"2007-02-06 20:00:00",-6999.0,0.115000002086,76.5999984741,7.57999992371,7.98000001907,102.300003052,11.8500003815
"2007-02-06 21:00:00",-6999.0,0.115000002086,76.5999984741,7.57999992371,7.98000001907,102.300003052,11.8299999237
"2007-02-06 22:00:00",-6999.0,0.115000002086,76.5999984741,7.57999992371,7.98000001907,102.300003052,11.8199996948
"2007-02-06 23:00:00",-6999.0,0.115000002086,76.5999984741,7.57999992371,7.98000001907,102.300003052,11.8000001907
"2007-02-07 00:00:00",-6999.0,0.115000002086,76.5999984741,7.57999992371,7.98000001907,102.300003052,11.8000001907
"2007-02-07 01:00:00",-6999.0,0.115000002086,76.5999984741,7.57999992371,7.98000001907,102.300003052,11.7899999619
"2007-02-07 02:00:00",-6999.0,0.115000002086,76.5999984741,7.57999992371,7.98000001907,102.300003052,11.7899999619
"2007-02-07 03:00:00",-6999.0,0.115000002086,76.5999984741,7.57999992371,7.98000001907,102.300003052,11.7700004578
"2007-02-07 04:00:00",-6999.0,0.115000002086,76.5999984741,7.57999992371,7.98000001907,102.300003052,11.7600002289
"2007-02-07 05:00:00",-6999.0,0.115000002086,76.5999984741,7.57999992371,7.98000001907,102.300003052,11.75
"2007-02-07 06:00:00",-6999.0,0.115000002086,76.5999984741,7.57999992371,7.98000001907,102.300003052,11.7399997711
"2007-02-07 07:00:00",-6999.0,0.115000002086,76.5999984741,7.57999992371,7.98000001907,102.300003052,11.7299995422
"2007-02-07 08:00:00",-6999.0,0.115000002086,76.5999984741,7.57999992371,7.98000001907,102.300003052,11.720000267
"2007-02-07 09:00:00",-6999.0,0.115000002086,76.5999984741,7.57999992371,7.98000001907,102.300003052,11.7100000381
"2007-02-07 10:00:00",-6999.0,0.115000002086,76.5999984741,7.57999992371,7.98000001907,102.300003052,11.7700004578
"2007-02-07 11:00:00",-6999.0,0.115000002086,76.5999984741,7.57999992371,7.98000001907,102.300003052,12.0100002289
"2007-02-07 12:00:00",-6999.0,0.115000002086,76.5999984741,7.57999992371,7.98000001907,102.300003052,12.2299995422
"2007-02-07 13:00:00",-6999.0,0.115000002086,76.5999984741,7.57999992371,7.98000001907,102.300003052,12.3900003433
"2007-02-07 14:00:00",-6999.0,0.115000002086,76.5999984741,7.57999992371,7.98000001907,102.300003052,12.470000267
"2007-02-07 15:00:00",-6999.0,0.115000002086,76.5999984741,7.57999992371,7.98000001907,102.300003052,12.3999996185
"2007-02-07 16:00:00",-6999.0,0.115000002086,76.5999984741,7.57999992371,7.98000001907,102.300003052,12.1599998474
"2007-02-07 17:00:00",-6999.0,0.115000002086,76.5999984741,7.57999992371,7.98000001907,102.300003052,12.1499996185
"2007-02-07 18:00:00",-6999.0,0.115000002086,76.5999984741,7.57999992371,7.98000001907,102.300003052,11.9300003052
"2007-02-07 19:00:00",-6999.0,0.115000002086,76.5999984741,7.57999992371,7.98000001907,102.300003052,11.8999996185
"2007-02-07 20:00:00",-6999.0,0.115000002086,76.5999984741,7.57999992371,7.98000001907,102.300003052,11.8800001144
"2007-02-07 21:00:00",-6999.0,0.115000002086,76.5999984741,7.57999992371,7.98000001907,102.300003052,11.8699998856
"2007-02-07 22:00:00",-6999.0,0.115000002086,76.5999984741,7.57999992371,7.98000001907,102.300003052,11.8599996567
"2007-02-07 23:00:00",-6999.0,0.115000002086,76.5999984741,7.57999992371,7.98000001907,102.300003052,11.8500003815
"2007-02-08 00:00:00",-6999.0,0.115000002086,76.5999984741,7.57999992371,7.98000001907,102.300003052,11.8400001526
"2007-02-08 01:00:00",-6999.0,0.115000002086,76.5999984741,7.57999992371,7.98000001907,102.300003052,11.8299999237
"2007-02-08 02:00:00",-6999.0,0.115000002086,76.5999984741,7.57999992371,7.98000001907,102.300003052,11.8100004196
"2007-02-08 03:00:00",-6999.0,0.115000002086,76.5999984741,7.57999992371,7.98000001907,102.300003052,11.8100004196
"2007-02-08 04:00:00",-6999.0,0.115000002086,76.5999984741,7.57999992371,7.98000001907,102.300003052,11.7899999619
"2007-02-08 05:00:00",-6999.0,0.115000002086,76.5999984741,7.57999992371,7.98000001907,102.300003052,11.779999733
"2007-02-08 06:00:00",-6999.0,0.115000002086,76.5999984741,7.57999992371,7.98000001907,102.300003052,11.7700004578
"2007-02-08 07:00:00",-6999.0,0.115000002086,76.5999984741,7.57999992371,7.98000001907,102.300003052,11.75
"2007-02-08 08:00:00",-6999.0,0.115000002086,76.5999984741,7.57999992371,7.98000001907,102.300003052,11.7299995422
"2007-02-08 09:00:00",-6999.0,0.115000002086,76.5999984741,7.57999992371,7.98000001907,102.300003052,11.7299995422
"2007-02-08 10:00:00",-6999.0,0.115000002086,76.5999984741,7.57999992371,7.98000001907,102.300003052,11.7700004578
"2007-02-08 11:00:00",-6999.0,0.115000002086,76.5999984741,7.57999992371,7.98000001907,102.300003052,11.970000267
"2007-02-08 12:00:00",-6999.0,0.115000002086,76.5999984741,7.57999992371,7.98000001907,102.300003052,12.4399995804
"2007-02-08 13:00:00",-6999.0,0.115000002086,76.5999984741,7.57999992371,7.98000001907,102.300003052,12.5
"2007-02-08 14:00:00",-6999.0,0.115000002086,76.5999984741,7.57999992371,7.98000001907,102.300003052,12.5
"2007-02-08 15:00:00",-6999.0,0.115000002086,76.5999984741,7.57999992371,7.98000001907,102.300003052,12.3000001907
"2007-02-08 16:00:00",-6999.0,0.115000002086,76.5999984741,7.57999992371,7.98000001907,102.300003052,12.1199998856
"2007-02-08 17:00:00",-6999.0,0.115000002086,76.5999984741,7.57999992371,7.98000001907,102.300003052,12.279999733
"2007-02-08 18:00:00",-6999.0,0.115000002086,76.5999984741,7.57999992371,7.98000001907,102.300003052,11.9600000381
"2007-02-08 19:00:00",-6999.0,0.115000002086,76.5999984741,7.57999992371,7.98000001907,102.300003052,11.9300003052
"2007-02-08 20:00:00",-6999.0,0.115000002086,76.5999984741,7.57999992371,7.98000001907,102.300003052,11.9200000763
"2007-02-08 21:00:00",-6999.0,0.115000002086,76.5999984741,7.57999992371,7.98000001907,102.300003052,11.8999996185
"2007-02-08 22:00:00",-6999.0,0.115000002086,76.5999984741,7.57999992371,7.98000001907,102.300003052,11.8800001144
"2007-02-08 23:00:00",-6999.0,0.115000002086,76.5999984741,7.57999992371,7.98000001907,102.300003052,11.8599996567
"2007-02-09 00:00:00",-6999.0,0.115000002086,76.5999984741,7.57999992371,7.98000001907,102.300003052,11.8500003815
"2007-02-09 01:00:00",-6999.0,0.115000002086,76.5999984741,7.57999992371,7.98000001907,102.300003052,11.8400001526
"2007-02-09 02:00:00",-6999.0,0.115000002086,76.5999984741,7.57999992371,7.98000001907,102.300003052,11.8199996948
"2007-02-09 03:00:00",-6999.0,0.115000002086,76.5999984741,7.57999992371,7.98000001907,102.300003052,11.8100004196
"2007-02-09 04:00:00",-6999.0,0.115000002086,76.5999984741,7.57999992371,7.98000001907,102.300003052,11.7899999619
"2007-02-09 05:00:00",-6999.0,0.115000002086,76.5999984741,7.57999992371,7.98000001907,102.300003052,11.7399997711
"2007-02-09 06:00:00",-6999.0,0.115000002086,76.5999984741,7.57999992371,7.98000001907,102.300003052,11.7700004578
"2007-02-09 07:00:00",-6999.0,0.115000002086,76.5999984741,7.57999992371,7.98000001907,102.300003052,11.7399997711
"2007-02-09 08:00:00",-6999.0,0.115000002086,76.5999984741,7.57999992371,7.98000001907,102.300003052,11.7299995422
"2007-02-09 09:00:00",-6999.0,0.115000002086,76.5999984741,7.57999992371,7.98000001907,102.300003052,11.7299995422
"2007-02-09 10:00:00",-6999.0,0.115000002086,76.5999984741,7.57999992371,7.98000001907,102.300003052,11.7700004578
"2007-02-09 11:00:00",-6999.0,0.115000002086,76.5999984741,7.57999992371,7.98000001907,102.300003052,12.2600002289
"2007-02-09 12:00:00",-6999.0,0.115000002086,76.5999984741,7.57999992371,7.98000001907,102.300003052,13.3100004196
"2007-02-09 13:00:00",-6999.0,0.115000002086,76.5999984741,7.57999992371,7.98000001907,102.300003052,12.5399999619
"2007-02-09 14:00:00",-6999.0,0.115000002086,76.5999984741,7.57999992371,7.98000001907,102.300003052,12.5
"2007-02-09 15:00:00",-6999.0,0.115000002086,76.5999984741,7.57999992371,7.98000001907,102.300003052,12.4300003052
"2007-02-09 16:00:00",-6999.0,0.115000002086,76.5999984741,7.57999992371,7.98000001907,102.300003052,12.1300001144
"2007-02-09 17:00:00",-6999.0,0.115000002086,76.5999984741,7.57999992371,7.98000001907,102.300003052,12.0200004578
"2007-02-09 18:00:00",-6999.0,0.115000002086,76.5999984741,7.57999992371,7.98000001907,102.300003052,11.9499998093
"2007-02-09 19:00:00",-6999.0,0.115000002086,76.5999984741,7.57999992371,7.98000001907,102.300003052,11.9200000763
"2007-02-09 20:00:00",-6999.0,0.115000002086,76.5999984741,7.57999992371,7.98000001907,102.300003052,11.8999996185
"2007-02-09 21:00:00",-6999.0,0.115000002086,76.5999984741,7.57999992371,7.98000001907,102.300003052,11.8900003433
"2007-02-09 22:00:00",-6999.0,0.115000002086,76.5999984741,7.57999992371,7.98000001907,102.300003052,11.8699998856
"2007-02-09 23:00:00",-6999.0,0.115000002086,76.5999984741,7.57999992371,7.98000001907,102.300003052,11.8599996567
"2007-02-10 00:00:00",-6999.0,0.115000002086,76.5999984741,7.57999992371,7.98000001907,102.300003052,11.8500003815
"2007-02-10 01:00:00",-6999.0,0.115000002086,76.5999984741,7.57999992371,7.98000001907,102.300003052,11.8400001526
"2007-02-10 02:00:00",-6999.0,0.115000002086,76.5999984741,7.57999992371,7.98000001907,102.300003052,11.8199996948
"2007-02-10 03:00:00",-6999.0,0.115000002086,76.5999984741,7.57999992371,7.98000001907,102.300003052,11.8000001907
"2007-02-10 04:00:00",-6999.0,0.115000002086,76.5999984741,7.57999992371,7.98000001907,102.300003052,11.7899999619
"2007-02-10 05:00:00",-6999.0,0.115000002086,76.5999984741,7.57999992371,7.98000001907,102.300003052,11.7700004578
"2007-02-10 06:00:00",-6999.0,0.115000002086,76.5999984741,7.57999992371,7.98000001907,102.300003052,11.75
"2007-02-10 07:00:00",-6999.0,0.115000002086,76.5999984741,7.57999992371,7.98000001907,102.300003052,11.7399997711
"2007-02-10 08:00:00",-6999.0,0.115000002086,76.5999984741,7.57999992371,7.98000001907,102.300003052,11.7299995422
"2007-02-10 09:00:00",-6999.0,0.115000002086,76.5999984741,7.57999992371,7.98000001907,102.300003052,11.7299995422
"2007-02-10 10:00:00",-6999.0,0.115000002086,76.5999984741,7.57999992371,7.98000001907,102.300003052,11.8299999237
"2007-02-10 11:00:00",-6999.0,0.115000002086,76.5999984741,7.57999992371,7.98000001907,102.300003052,12.2600002289
"2007-02-10 12:00:00",-6999.0,0.115000002086,76.5999984741,7.57999992371,7.98000001907,102.300003052,13.1000003815
"2007-02-10 13:00:00",-6999.0,0.115000002086,76.5999984741,7.57999992371,7.98000001907,102.300003052,12.9200000763
"2007-02-10 14:00:00",-6999.0,0.115000002086,76.5999984741,7.57999992371,7.98000001907,102.300003052,12.8599996567
"2007-02-10 15:00:00",-6999.0,0.115000002086,76.5999984741,7.57999992371,7.98000001907,102.300003052,12.5500001907
"2007-02-10 16:00:00",-6999.0,0.115000002086,76.5999984741,7.57999992371,7.98000001907,102.300003052,12.2899999619
"2007-02-10 17:00:00",-6999.0,0.115000002086,76.5999984741,7.57999992371,7.98000001907,102.300003052,12.3400001526
"2007-02-10 18:00:00",-6999.0,0.115000002086,76.5999984741,7.57999992371,7.98000001907,102.300003052,12.0399999619
"2007-02-10 19:00:00",-6999.0,0.115000002086,76.5999984741,7.57999992371,7.98000001907,102.300003052,12.0100002289
"2007-02-10 20:00:00",-6999.0,0.115000002086,76.5999984741,7.57999992371,7.98000001907,102.300003052,11.9899997711
"2007-02-10 21:00:00",-6999.0,0.115000002086,76.5999984741,7.57999992371,7.98000001907,102.300003052,11.970000267
"2007-02-10 22:00:00",-6999.0,0.115000002086,76.5999984741,7.57999992371,7.98000001907,102.300003052,11.9499998093
"2007-02-10 23:00:00",-6999.0,0.115000002086,76.5999984741,7.57999992371,7.98000001907,102.300003052,11.9399995804
"2007-02-11 00:00:00",-6999.0,0.115000002086,76.5999984741,7.57999992371,7.98000001907,102.300003052,11.9200000763
"2007-02-11 01:00:00",-6999.0,0.115000002086,76.5999984741,7.57999992371,7.98000001907,102.300003052,11.9099998474
"2007-02-11 02:00:00",-6999.0,0.115000002086,76.5999984741,7.57999992371,7.98000001907,102.300003052,11.8999996185
"2007-02-11 03:00:00",-6999.0,0.115000002086,76.5999984741,7.57999992371,7.98000001907,102.300003052,11.8599996567
"2007-02-11 04:00:00",-6999.0,0.115000002086,76.5999984741,7.57999992371,7.98000001907,102.300003052,11.8699998856
"2007-02-11 05:00:00",-6999.0,0.115000002086,76.5999984741,7.57999992371,7.98000001907,102.300003052,11.8500003815